| time (UTC) | temp F | wind direction | speed knots | gust knots | rain 1hr in | rain 24hr in | rain mn in | humidity % | barometer mb |
| 20260503072431 | 68 | 0.0 | 0.0 | 0.00 | 0.00 | 0.00 | 46 | 1021.1 | |
| 20260503070431 | 71 | 0.0 | 0.0 | 0.00 | 0.00 | 0.00 | 42 | 1021.0 | |
| 20260503054430 | 61 | 0.0 | 0.0 | 0.00 | 0.00 | 0.00 | 57 | 1021.3 | |
| 20260503052429 | 59 | 0.0 | 0.0 | 0.00 | 0.00 | 0.00 | 61 | 1021.3 | |
| 20260503050429 | 56 | 0.0 | 0.0 | 0.00 | 0.00 | 0.00 | 64 | 1021.4 | |
| 20260503044429 | 55 | 0.0 | 0.0 | 0.00 | 0.00 | 0.00 | 65 | 1021.3 | |
| 20260503042428 | 54 | 0.0 | 0.0 | 0.00 | 0.00 | 0.00 | 66 | 1021.3 | |
| 20260503040428 | 54 | 0.0 | 0.0 | 0.00 | 0.00 | 0.00 | 66 | 1021.2 | |
| 20260503034428 | 54 | 0.0 | 0.0 | 0.00 | 0.00 | 0.00 | 65 | 1021.3 | |
| 20260503032428 | 55 | 0.0 | 0.0 | 0.00 | 0.00 | 0.00 | 64 | 1021.3 | |
| 20260503030427 | 55 | 0.0 | 0.0 | 0.00 | 0.00 | 0.00 | 64 | 1021.3 | |
| 20260503024427 | 55 | 0.0 | 0.0 | 0.00 | 0.00 | 0.00 | 63 | 1021.4 | |
| 20260503022427 | 56 | 0.0 | 0.0 | 0.00 | 0.00 | 0.00 | 62 | 1021.5 | |
| 20260503020426 | 56 | 0.0 | 0.0 | 0.00 | 0.00 | 0.00 | 61 | 1021.6 | |
| 20260503014426 | 56 | 0.0 | 0.0 | 0.00 | 0.00 | 0.00 | 60 | 1021.6 | |
| 20260503012426 | 56 | 0.0 | 0.0 | 0.00 | 0.00 | 0.00 | 60 | 1021.7 | |
| 20260503010425 | 56 | 0.0 | 0.0 | 0.00 | 0.00 | 0.00 | 60 | 1021.8 | |
| 20260503004425 | 57 | 0.0 | 0.0 | 0.00 | 0.00 | 0.00 | 58 | 1021.9 | |
| 20260503002425 | 57 | 0.0 | 0.0 | 0.00 | 0.00 | 0.00 | 57 | 1022.2 | |
| 20260503000425 | 58 | 0.0 | 0.0 | 0.00 | 0.00 | 0.00 | 56 | 1022.4 | |
| 20260502234424 | 59 | 0.0 | 0.0 | 0.00 | 0.00 | 0.00 | 54 | 1022.5 | |
| 20260502232424 | 59 | 0.0 | 0.0 | 0.00 | 0.00 | 0.00 | 54 | 1022.5 | |
| 20260502230424 | 59 | 0.0 | 0.0 | 0.00 | 0.00 | 0.00 | 53 | 1022.7 | |
| 20260502224423 | 60 | 0.0 | 0.0 | 0.00 | 0.00 | 0.00 | 52 | 1022.6 | |
| 20260502222423 | 60 | 0.0 | 0.0 | 0.00 | 0.00 | 0.00 | 52 | 1022.8 | |
| 20260502220423 | 61 | 0.0 | 0.0 | 0.00 | 0.00 | 0.00 | 50 | 1022.7 | |
| 20260502214423 | 62 | 0.0 | 0.0 | 0.00 | 0.00 | 0.00 | 49 | 1022.6 | |
| 20260502212422 | 63 | 0.0 | 0.0 | 0.00 | 0.00 | 0.00 | 48 | 1022.6 | |
| 20260502210422 | 63 | 0.0 | 0.0 | 0.00 | 0.00 | 0.00 | 48 | 1022.4 | |
| 20260502204421 | 64 | 0.0 | 0.0 | 0.00 | 0.00 | 0.00 | 47 | 1022.5 | |
| 20260502202421 | 64 | 0.0 | 0.0 | 0.00 | 0.00 | 0.00 | 47 | 1022.5 | |
| 20260502200421 | 65 | 0.0 | 0.0 | 0.00 | 0.00 | 0.00 | 46 | 1022.6 | |
| 20260502194421 | 67 | 0.0 | 0.0 | 0.00 | 0.00 | 0.00 | 44 | 1022.5 | |
| 20260502192420 | 70 | 0.0 | 0.0 | 0.00 | 0.00 | 0.00 | 38 | 1022.2 | |
| 20260502190420 | 71 | 0.0 | 0.0 | 0.00 | 0.00 | 0.00 | 35 | 1022.1 | |
| 20260502184420 | 72 | 0.0 | 0.0 | 0.00 | 0.00 | 0.00 | 33 | 1021.8 | |
| 20260502182419 | 72 | 0.0 | 0.0 | 0.00 | 0.00 | 0.00 | 33 | 1021.8 | |
| 20260502180419 | 75 | 0.0 | 0.0 | 0.00 | 0.00 | 0.00 | 31 | 1021.6 | |
| 20260502170418 | 79 | 0.0 | 0.0 | 0.00 | 0.00 | 0.00 | 27 | 1021.4 | |
| 20260502162417 | 79 | 0.0 | 0.0 | 0.00 | 0.00 | 0.00 | 27 | 1021.7 | |
| 20260502160417 | 80 | 0.0 | 0.0 | 0.00 | 0.00 | 0.00 | 27 | 1021.8 | |
| 20260502123051 | 75 | 0.0 | 0.0 | 0.00 | 0.00 | 0.00 | 30 | 1024.6 | |
| 20260502121051 | 78 | 0.0 | 0.0 | 0.00 | 0.00 | 0.00 | 29 | 1024.8 | |
| 20260502115050 | 74 | 0.0 | 0.0 | 0.00 | 0.00 | 0.00 | 31 | 1025.2 | |
| 20260502113050 | 74 | 0.0 | 0.0 | 0.00 | 0.00 | 0.00 | 32 | 1025.5 | |
| 20260502111050 | 79 | 0.0 | 0.0 | 0.00 | 0.00 | 0.00 | 29 | 1025.7 | |
| 20260502105050 | 73 | 0.0 | 0.0 | 0.00 | 0.00 | 0.00 | 31 | 1026.3 | |
| 20260502103049 | 78 | 0.0 | 0.0 | 0.00 | 0.00 | 0.00 | 29 | 1026.4 | |
| 20260502101049 | 72 | 0.0 | 0.0 | 0.00 | 0.00 | 0.00 | 33 | 1026.9 | |
| 20260502091048 | 76 | 0.0 | 0.0 | 0.00 | 0.00 | 0.00 | 33 | 1027.2 |